Year,Month,Day,Hour,Minute,Value (Times are PST for temperature in C)
2010,10,08,00,00,11.40
2010,10,08,00,01,11.40
2010,10,08,00,02,11.40
2010,10,08,00,03,11.40
2010,10,08,00,04,11.40
2010,10,08,00,05,11.40
2010,10,08,00,06,11.40
2010,10,08,00,07,11.40
2010,10,08,00,08,11.40
2010,10,08,00,09,11.40
2010,10,08,00,10,11.40
2010,10,08,00,11,11.40
2010,10,08,00,12,11.40
2010,10,08,00,13,11.40
2010,10,08,00,14,11.40
2010,10,08,00,15,11.30
2010,10,08,00,16,11.30
2010,10,08,00,17,11.30
2010,10,08,00,18,11.30
2010,10,08,00,19,11.30
2010,10,08,00,20,11.30
2010,10,08,00,21,11.30
2010,10,08,00,22,11.30
2010,10,08,00,23,11.30
2010,10,08,00,24,11.30
2010,10,08,00,25,11.30
2010,10,08,00,26,11.30
2010,10,08,00,27,11.30
2010,10,08,00,28,11.30
2010,10,08,00,29,11.30
2010,10,08,00,30,11.30
2010,10,08,00,31,11.30
2010,10,08,00,32,11.30
2010,10,08,00,33,11.30
2010,10,08,00,34,11.30
2010,10,08,00,35,11.30
2010,10,08,00,36,11.30
2010,10,08,00,37,11.30
2010,10,08,00,38,11.30
2010,10,08,00,39,11.30
2010,10,08,00,40,11.30
2010,10,08,00,41,11.30
2010,10,08,00,42,11.30
2010,10,08,00,43,11.30
2010,10,08,00,44,11.30
2010,10,08,00,45,11.30
2010,10,08,00,46,11.30
2010,10,08,00,47,11.30
2010,10,08,00,48,11.30
2010,10,08,00,49,11.30
2010,10,08,00,50,11.30
2010,10,08,00,51,11.30
2010,10,08,00,52,11.30
2010,10,08,00,53,11.30
2010,10,08,00,54,11.30
2010,10,08,00,55,11.30
2010,10,08,00,56,11.30
2010,10,08,00,57,11.30
2010,10,08,00,58,11.30
2010,10,08,00,59,11.30
2010,10,08,01,00,11.30
2010,10,08,01,01,11.30
2010,10,08,01,02,11.30
2010,10,08,01,03,11.30
2010,10,08,01,04,11.30
2010,10,08,01,05,11.30
2010,10,08,01,06,11.30
2010,10,08,01,07,11.30
2010,10,08,01,08,11.30
2010,10,08,01,09,11.20
2010,10,08,01,10,11.20
2010,10,08,01,11,11.30
2010,10,08,01,12,11.30
2010,10,08,01,13,11.20
2010,10,08,01,14,11.30
2010,10,08,01,15,11.20
2010,10,08,01,16,11.20
2010,10,08,01,17,11.20
2010,10,08,01,18,11.20
2010,10,08,01,19,11.20
2010,10,08,01,20,11.30
2010,10,08,01,21,11.30
2010,10,08,01,22,11.30
2010,10,08,01,23,11.30
2010,10,08,01,24,11.30
2010,10,08,01,25,11.30
2010,10,08,01,26,11.30
2010,10,08,01,27,11.30
2010,10,08,01,28,11.30
2010,10,08,01,29,11.30
2010,10,08,01,30,11.30
2010,10,08,01,31,11.30
2010,10,08,01,32,11.30
2010,10,08,01,33,11.30
2010,10,08,01,34,11.30
2010,10,08,01,35,11.30
2010,10,08,01,36,11.30
2010,10,08,01,37,11.30
2010,10,08,01,38,11.30
2010,10,08,01,39,11.30
2010,10,08,01,40,11.30
2010,10,08,01,41,11.30
2010,10,08,01,42,11.30
2010,10,08,01,43,11.30
2010,10,08,01,44,11.30
2010,10,08,01,45,11.30
2010,10,08,01,46,11.30
2010,10,08,01,47,11.30
2010,10,08,01,48,11.30
2010,10,08,01,49,11.30
2010,10,08,01,50,11.30
2010,10,08,01,51,11.30
2010,10,08,01,52,11.30
2010,10,08,01,53,11.30
2010,10,08,01,54,11.30
2010,10,08,01,55,11.30
2010,10,08,01,56,11.30
2010,10,08,01,57,11.30
2010,10,08,01,58,11.30
2010,10,08,01,59,11.30
2010,10,08,02,00,11.30
2010,10,08,02,01,11.30
2010,10,08,02,02,11.30
2010,10,08,02,03,11.30
2010,10,08,02,04,11.30
2010,10,08,02,05,11.30
2010,10,08,02,06,11.30
2010,10,08,02,07,11.30
2010,10,08,02,08,11.30
2010,10,08,02,09,11.30
2010,10,08,02,10,11.30
2010,10,08,02,11,11.30
2010,10,08,02,12,11.30
2010,10,08,02,13,11.30
2010,10,08,02,14,11.30
2010,10,08,02,15,11.30
2010,10,08,02,16,11.30
2010,10,08,02,17,11.30
2010,10,08,02,18,11.30
2010,10,08,02,19,11.30
2010,10,08,02,20,11.30
2010,10,08,02,21,11.30
2010,10,08,02,22,11.30
2010,10,08,02,23,11.30
2010,10,08,02,24,11.30
2010,10,08,02,25,11.30
2010,10,08,02,26,11.30
2010,10,08,02,27,11.30
2010,10,08,02,28,11.30
2010,10,08,02,29,11.30
2010,10,08,02,30,11.30
2010,10,08,02,31,11.30
2010,10,08,02,32,11.30
2010,10,08,02,33,11.30
2010,10,08,02,34,11.30
2010,10,08,02,35,11.30
2010,10,08,02,36,11.30
2010,10,08,02,37,11.30
2010,10,08,02,38,11.30
2010,10,08,02,39,11.30
2010,10,08,02,40,11.30
2010,10,08,02,41,11.30
2010,10,08,02,42,11.30
2010,10,08,02,43,11.30
2010,10,08,02,44,11.30
2010,10,08,02,45,11.30
2010,10,08,02,46,11.30
2010,10,08,02,47,11.30
2010,10,08,02,48,11.30
2010,10,08,02,49,11.30
2010,10,08,02,50,11.30
2010,10,08,02,51,11.30
2010,10,08,02,52,11.30
2010,10,08,02,53,11.30
2010,10,08,02,54,11.30
2010,10,08,02,55,11.30
2010,10,08,02,56,11.30
2010,10,08,02,57,11.30
2010,10,08,02,58,11.30
2010,10,08,02,59,11.30
2010,10,08,03,00,11.30
2010,10,08,03,01,11.30
2010,10,08,03,02,11.30
2010,10,08,03,03,11.30
2010,10,08,03,04,11.30
2010,10,08,03,05,11.30
2010,10,08,03,06,11.30
2010,10,08,03,07,11.30
2010,10,08,03,08,11.30
2010,10,08,03,09,11.30
2010,10,08,03,10,11.30
2010,10,08,03,11,11.30
2010,10,08,03,12,11.30
2010,10,08,03,13,11.30
2010,10,08,03,14,11.30
2010,10,08,03,15,11.30
2010,10,08,03,16,11.30
2010,10,08,03,17,11.30
2010,10,08,03,18,11.30
2010,10,08,03,19,11.30
2010,10,08,03,20,11.20
2010,10,08,03,21,11.20
2010,10,08,03,22,11.20
2010,10,08,03,23,11.30
2010,10,08,03,24,11.30
2010,10,08,03,25,11.30
2010,10,08,03,26,11.20
2010,10,08,03,27,11.20
2010,10,08,03,28,11.20
2010,10,08,03,29,11.30
2010,10,08,03,30,11.20
2010,10,08,03,31,11.20
2010,10,08,03,32,11.20
2010,10,08,03,33,11.20
2010,10,08,03,34,11.20
2010,10,08,03,35,11.20
2010,10,08,03,36,11.20
2010,10,08,03,37,11.20
2010,10,08,03,38,11.20
2010,10,08,03,39,11.20
2010,10,08,03,40,11.20
2010,10,08,03,41,11.20
2010,10,08,03,42,11.20
2010,10,08,03,43,11.20
2010,10,08,03,44,11.20
2010,10,08,03,45,11.20
2010,10,08,03,46,11.20
2010,10,08,03,47,11.20
2010,10,08,03,48,11.20
2010,10,08,03,49,11.20
2010,10,08,03,50,11.20
2010,10,08,03,51,11.20
2010,10,08,03,52,11.20
2010,10,08,03,53,11.20
2010,10,08,03,54,11.20
2010,10,08,03,55,11.20
2010,10,08,03,56,11.20
2010,10,08,03,57,11.20
2010,10,08,03,58,11.20
2010,10,08,03,59,11.20
2010,10,08,04,00,11.20
2010,10,08,04,01,11.20
2010,10,08,04,02,11.20
2010,10,08,04,03,11.20
2010,10,08,04,04,11.20
2010,10,08,04,05,11.20
2010,10,08,04,06,11.20
2010,10,08,04,07,11.20
2010,10,08,04,08,11.20
2010,10,08,04,09,11.20
2010,10,08,04,10,11.20
2010,10,08,04,11,11.20
2010,10,08,04,12,11.20
2010,10,08,04,13,11.20
2010,10,08,04,14,11.20
2010,10,08,04,15,11.20
2010,10,08,04,16,11.20
2010,10,08,04,17,11.20
2010,10,08,04,18,11.20
2010,10,08,04,19,11.20
2010,10,08,04,20,11.20
2010,10,08,04,21,11.20
2010,10,08,04,22,11.20
2010,10,08,04,23,11.20
2010,10,08,04,24,11.20
2010,10,08,04,25,11.20
2010,10,08,04,26,11.20
2010,10,08,04,27,11.20
2010,10,08,04,28,11.20
2010,10,08,04,29,11.20
2010,10,08,04,30,11.20
2010,10,08,04,31,11.20
2010,10,08,04,32,11.20
2010,10,08,04,33,11.20
2010,10,08,04,34,11.20
2010,10,08,04,35,11.20
2010,10,08,04,36,11.10
2010,10,08,04,37,11.10
2010,10,08,04,38,11.10
2010,10,08,04,39,11.10
2010,10,08,04,40,11.10
2010,10,08,04,41,11.10
2010,10,08,04,42,11.10
2010,10,08,04,43,11.10
2010,10,08,04,44,11.10
2010,10,08,04,45,11.10
2010,10,08,04,46,11.10
2010,10,08,04,47,11.10
2010,10,08,04,48,11.10
2010,10,08,04,49,11.10
2010,10,08,04,50,11.10
2010,10,08,04,51,11.10
2010,10,08,04,52,11.10
2010,10,08,04,53,11.10
2010,10,08,04,54,11.10
2010,10,08,04,55,11.10
2010,10,08,04,56,11.10
2010,10,08,04,57,11.10
2010,10,08,04,58,11.10
2010,10,08,04,59,11.10
2010,10,08,05,00,11.10
2010,10,08,05,01,11.10
2010,10,08,05,02,11.10
2010,10,08,05,03,11.20
2010,10,08,05,04,11.20
2010,10,08,05,05,11.20
2010,10,08,05,06,11.20
2010,10,08,05,07,11.20
2010,10,08,05,08,11.20
2010,10,08,05,09,11.20
2010,10,08,05,10,11.20
2010,10,08,05,11,11.20
2010,10,08,05,12,11.20
2010,10,08,05,13,11.20
2010,10,08,05,14,11.20
2010,10,08,05,15,11.20
2010,10,08,05,16,11.20
2010,10,08,05,17,11.20
2010,10,08,05,18,11.10
2010,10,08,05,19,11.10
2010,10,08,05,20,11.10
2010,10,08,05,21,11.10
2010,10,08,05,22,11.10
2010,10,08,05,23,11.10
2010,10,08,05,24,11.10
2010,10,08,05,25,11.10
2010,10,08,05,26,11.10
2010,10,08,05,27,11.10
2010,10,08,05,28,11.10
2010,10,08,05,29,11.10
2010,10,08,05,30,11.10
2010,10,08,05,31,11.10
2010,10,08,05,32,11.10
2010,10,08,05,33,11.10
2010,10,08,05,34,11.10
2010,10,08,05,35,11.10
2010,10,08,05,36,11.10
2010,10,08,05,37,11.10
2010,10,08,05,38,11.10
2010,10,08,05,39,11.10
2010,10,08,05,40,11.10
2010,10,08,05,41,11.10
2010,10,08,05,42,11.10
2010,10,08,05,43,11.10
2010,10,08,05,44,11.10
2010,10,08,05,45,11.10
2010,10,08,05,46,11.10
2010,10,08,05,47,11.10
2010,10,08,05,48,11.10
2010,10,08,05,49,11.20
2010,10,08,05,50,11.20
2010,10,08,05,51,11.20
2010,10,08,05,52,11.20
2010,10,08,05,53,11.20
2010,10,08,05,54,11.20
2010,10,08,05,55,11.20
2010,10,08,05,56,11.20
2010,10,08,05,57,11.20
2010,10,08,05,58,11.20
2010,10,08,05,59,11.20
2010,10,08,06,00,11.20
2010,10,08,06,01,11.20
2010,10,08,06,02,11.20
2010,10,08,06,03,11.20
2010,10,08,06,04,11.20
2010,10,08,06,05,11.20
2010,10,08,06,06,11.20
2010,10,08,06,07,11.20
2010,10,08,06,08,11.20
2010,10,08,06,09,11.20
2010,10,08,06,10,11.20
2010,10,08,06,11,11.20
2010,10,08,06,12,11.20
2010,10,08,06,13,11.20
2010,10,08,06,14,11.20
2010,10,08,06,15,11.20
2010,10,08,06,16,11.20
2010,10,08,06,17,11.20
2010,10,08,06,18,11.20
2010,10,08,06,19,11.20
2010,10,08,06,20,11.20
2010,10,08,06,21,11.20
2010,10,08,06,22,11.20
2010,10,08,06,23,11.20
2010,10,08,06,24,11.20
2010,10,08,06,25,11.20
2010,10,08,06,26,11.20
2010,10,08,06,27,11.20
2010,10,08,06,28,11.20
2010,10,08,06,29,11.20
2010,10,08,06,30,11.20
2010,10,08,06,31,11.20
2010,10,08,06,32,11.20
2010,10,08,06,33,11.20
2010,10,08,06,34,11.20
2010,10,08,06,35,11.20
2010,10,08,06,36,11.20
2010,10,08,06,37,11.20
2010,10,08,06,38,11.20
2010,10,08,06,39,11.20
2010,10,08,06,40,11.20
2010,10,08,06,41,11.20
2010,10,08,06,42,11.20
2010,10,08,06,43,11.20
2010,10,08,06,44,11.20
2010,10,08,06,45,11.20
2010,10,08,06,46,11.20
2010,10,08,06,47,11.20
2010,10,08,06,48,11.20
2010,10,08,06,49,11.20
2010,10,08,06,50,11.20
2010,10,08,06,51,11.20
2010,10,08,06,52,11.20
2010,10,08,06,53,11.20
2010,10,08,06,54,11.20
2010,10,08,06,55,11.20
2010,10,08,06,56,11.20
2010,10,08,06,57,11.20
2010,10,08,06,58,11.20
2010,10,08,06,59,11.20
2010,10,08,07,00,11.20
2010,10,08,07,01,11.20
2010,10,08,07,02,11.20
2010,10,08,07,03,11.20
2010,10,08,07,04,11.20
2010,10,08,07,05,11.20
2010,10,08,07,06,11.20
2010,10,08,07,07,11.20
2010,10,08,07,08,11.20
2010,10,08,07,09,11.20
2010,10,08,07,10,11.20
2010,10,08,07,11,11.20
2010,10,08,07,12,11.20
2010,10,08,07,13,11.20
2010,10,08,07,14,11.20
2010,10,08,07,15,11.20
2010,10,08,07,16,11.20
2010,10,08,07,17,11.20
2010,10,08,07,18,11.20
2010,10,08,07,19,11.20
2010,10,08,07,20,11.20
2010,10,08,07,21,11.20
2010,10,08,07,22,11.20
2010,10,08,07,23,11.20
2010,10,08,07,24,11.20
2010,10,08,07,25,11.20
2010,10,08,07,26,11.20
2010,10,08,07,27,11.20
2010,10,08,07,28,11.20
2010,10,08,07,29,11.20
2010,10,08,07,30,11.30
2010,10,08,07,31,11.30
2010,10,08,07,32,11.30
2010,10,08,07,33,11.30
2010,10,08,07,34,11.30
2010,10,08,07,35,11.30
2010,10,08,07,36,11.30
2010,10,08,07,37,11.30
2010,10,08,07,38,11.30
2010,10,08,07,39,11.30
2010,10,08,07,40,11.30
2010,10,08,07,41,11.30
2010,10,08,07,42,11.30
2010,10,08,07,43,11.40
2010,10,08,07,44,11.40
2010,10,08,07,45,11.40
2010,10,08,07,46,11.40
2010,10,08,07,47,11.40
2010,10,08,07,48,11.40
2010,10,08,07,49,11.40
2010,10,08,07,50,11.40
2010,10,08,07,51,11.40
2010,10,08,07,52,11.40
2010,10,08,07,53,11.40
2010,10,08,07,54,11.40
2010,10,08,07,55,11.40
2010,10,08,07,56,11.40
2010,10,08,07,57,11.50
2010,10,08,07,58,11.50
2010,10,08,07,59,11.50
2010,10,08,08,00,11.60
2010,10,08,08,01,11.60
2010,10,08,08,02,11.70
2010,10,08,08,03,11.70
2010,10,08,08,04,11.80
2010,10,08,08,05,11.80
2010,10,08,08,06,11.80
2010,10,08,08,07,11.80
2010,10,08,08,08,11.80
2010,10,08,08,09,11.80
2010,10,08,08,10,11.80
2010,10,08,08,11,11.80
2010,10,08,08,12,11.70
2010,10,08,08,13,11.70
2010,10,08,08,14,11.70
2010,10,08,08,15,11.60
2010,10,08,08,16,11.60
2010,10,08,08,17,11.60
2010,10,08,08,18,11.70
2010,10,08,08,19,11.70
2010,10,08,08,20,11.70
2010,10,08,08,21,11.70
2010,10,08,08,22,11.60
2010,10,08,08,23,11.70
2010,10,08,08,24,11.60
2010,10,08,08,25,11.60
2010,10,08,08,26,11.60
2010,10,08,08,27,11.60
2010,10,08,08,28,11.60
2010,10,08,08,29,11.60
2010,10,08,08,30,11.60
2010,10,08,08,31,11.60
2010,10,08,08,32,11.60
2010,10,08,08,33,11.60
2010,10,08,08,34,11.60
2010,10,08,08,35,11.60
2010,10,08,08,36,11.60
2010,10,08,08,37,11.60
2010,10,08,08,38,11.60
2010,10,08,08,39,11.60
2010,10,08,08,40,11.60
2010,10,08,08,41,11.60
2010,10,08,08,42,11.60
2010,10,08,08,43,11.60
2010,10,08,08,44,11.60
2010,10,08,08,45,11.60
2010,10,08,08,46,11.60
2010,10,08,08,47,11.60
2010,10,08,08,48,11.60
2010,10,08,08,49,11.60
2010,10,08,08,50,11.60
2010,10,08,08,51,11.60
2010,10,08,08,52,11.60
2010,10,08,08,53,11.60
2010,10,08,08,54,11.60
2010,10,08,08,55,11.60
2010,10,08,08,56,11.60
2010,10,08,08,57,11.60
2010,10,08,08,58,11.60
2010,10,08,08,59,11.60
2010,10,08,09,00,11.60
2010,10,08,09,01,11.60
2010,10,08,09,02,11.60
2010,10,08,09,03,11.60
2010,10,08,09,04,11.70
2010,10,08,09,05,11.70
2010,10,08,09,06,11.70
2010,10,08,09,07,11.70
2010,10,08,09,08,11.70
2010,10,08,09,09,11.70
2010,10,08,09,10,11.70
2010,10,08,09,11,11.70
2010,10,08,09,12,11.70
2010,10,08,09,13,11.70
2010,10,08,09,14,11.70
2010,10,08,09,15,11.70
2010,10,08,09,16,11.80
2010,10,08,09,17,11.80
2010,10,08,09,18,11.80
2010,10,08,09,19,11.80
2010,10,08,09,20,11.80
2010,10,08,09,21,11.80
2010,10,08,09,22,11.80
2010,10,08,09,23,11.80
2010,10,08,09,24,11.80
2010,10,08,09,25,11.80
2010,10,08,09,26,11.80
2010,10,08,09,27,11.80
2010,10,08,09,28,11.80
2010,10,08,09,29,11.80
2010,10,08,09,30,11.80
2010,10,08,09,31,11.80
2010,10,08,09,32,11.80
2010,10,08,09,33,11.80
2010,10,08,09,34,11.80
2010,10,08,09,35,11.80
2010,10,08,09,36,11.80
2010,10,08,09,37,11.80
2010,10,08,09,38,11.80
2010,10,08,09,39,11.80
2010,10,08,09,40,11.80
2010,10,08,09,41,11.80
2010,10,08,09,42,11.80
2010,10,08,09,43,11.80
2010,10,08,09,44,11.70
2010,10,08,09,45,11.70
2010,10,08,09,46,11.70
2010,10,08,09,47,11.70
2010,10,08,09,48,11.70
2010,10,08,09,49,11.70
2010,10,08,09,50,11.70
2010,10,08,09,51,11.70
2010,10,08,09,52,11.70
2010,10,08,09,53,11.70
2010,10,08,09,54,11.70
2010,10,08,09,55,11.70
2010,10,08,09,56,11.70
2010,10,08,09,57,11.80
2010,10,08,09,58,11.80
2010,10,08,09,59,11.70
2010,10,08,10,00,11.80
2010,10,08,10,01,11.80
2010,10,08,10,02,11.70
2010,10,08,10,03,11.80
2010,10,08,10,04,11.80
2010,10,08,10,05,11.80
2010,10,08,10,06,11.80
2010,10,08,10,07,11.80
2010,10,08,10,08,11.80
2010,10,08,10,09,11.80
2010,10,08,10,10,11.80
2010,10,08,10,11,11.80
2010,10,08,10,12,11.80
2010,10,08,10,13,11.90
2010,10,08,10,14,11.90
2010,10,08,10,15,11.90
2010,10,08,10,16,11.90
2010,10,08,10,17,11.90
2010,10,08,10,18,12.00
2010,10,08,10,19,12.00
2010,10,08,10,20,12.00
2010,10,08,10,21,12.00
2010,10,08,10,22,12.10
2010,10,08,10,23,12.10
2010,10,08,10,24,12.10
2010,10,08,10,25,12.10
2010,10,08,10,26,12.10
2010,10,08,10,27,12.10
2010,10,08,10,28,12.10
2010,10,08,10,29,12.10
2010,10,08,10,30,12.10
2010,10,08,10,31,12.10
2010,10,08,10,32,12.10
2010,10,08,10,33,12.10
2010,10,08,10,34,12.10
2010,10,08,10,35,12.10
2010,10,08,10,36,12.10
2010,10,08,10,37,12.20
2010,10,08,10,38,12.20
2010,10,08,10,39,12.20
2010,10,08,10,40,12.20
2010,10,08,10,41,12.20
2010,10,08,10,42,12.20
2010,10,08,10,43,12.20
2010,10,08,10,44,12.20
2010,10,08,10,45,12.20
2010,10,08,10,46,12.20
2010,10,08,10,47,12.20
2010,10,08,10,48,12.20
2010,10,08,10,49,12.20
2010,10,08,10,50,12.20
2010,10,08,10,51,12.20
2010,10,08,10,52,12.20
2010,10,08,10,53,12.20
2010,10,08,10,54,12.20
2010,10,08,10,55,12.20
2010,10,08,10,56,12.20
2010,10,08,10,57,12.20
2010,10,08,10,58,12.20
2010,10,08,10,59,12.20
2010,10,08,11,00,12.20
2010,10,08,11,01,12.20
2010,10,08,11,02,12.20
2010,10,08,11,03,12.20
2010,10,08,11,04,12.20
2010,10,08,11,05,12.20
2010,10,08,11,06,12.20
2010,10,08,11,07,12.20
2010,10,08,11,08,12.20
2010,10,08,11,09,12.20
2010,10,08,11,10,12.30
2010,10,08,11,11,12.30
2010,10,08,11,12,12.30
2010,10,08,11,13,12.30
2010,10,08,11,14,12.30
2010,10,08,11,15,12.30
2010,10,08,11,16,12.40
2010,10,08,11,17,12.40
2010,10,08,11,18,12.40
2010,10,08,11,19,12.40
2010,10,08,11,20,12.40
2010,10,08,11,21,12.40
2010,10,08,11,22,12.40
2010,10,08,11,23,12.40
2010,10,08,11,24,12.40
2010,10,08,11,25,12.40
2010,10,08,11,26,12.40
2010,10,08,11,27,12.40
2010,10,08,11,28,12.40
2010,10,08,11,29,12.40
2010,10,08,11,30,12.40
2010,10,08,11,31,12.40
2010,10,08,11,32,12.40
2010,10,08,11,33,12.50
2010,10,08,11,34,12.50
2010,10,08,11,35,12.50
2010,10,08,11,36,12.50
2010,10,08,11,37,12.50
2010,10,08,11,38,12.50
2010,10,08,11,39,12.60
2010,10,08,11,40,12.60
2010,10,08,11,41,12.60
2010,10,08,11,42,12.60
2010,10,08,11,43,12.60
2010,10,08,11,44,12.60
2010,10,08,11,45,12.70
2010,10,08,11,46,12.70
2010,10,08,11,47,12.70
2010,10,08,11,48,12.70
2010,10,08,11,49,12.70
2010,10,08,11,50,12.70
2010,10,08,11,51,12.70
2010,10,08,11,52,12.70
2010,10,08,11,53,12.70
2010,10,08,11,54,12.70
2010,10,08,11,55,12.70
2010,10,08,11,56,12.70
2010,10,08,11,57,12.70
2010,10,08,11,58,12.70
2010,10,08,11,59,12.70
2010,10,08,12,00,12.70
2010,10,08,12,01,12.70
2010,10,08,12,02,12.70
2010,10,08,12,03,12.70
2010,10,08,12,04,12.70
2010,10,08,12,05,12.80
2010,10,08,12,06,12.80
2010,10,08,12,07,12.80
2010,10,08,12,08,12.80
2010,10,08,12,09,12.80
2010,10,08,12,10,12.80
2010,10,08,12,11,12.80
2010,10,08,12,12,12.80
2010,10,08,12,13,12.80
2010,10,08,12,14,12.80
2010,10,08,12,15,12.80
2010,10,08,12,16,12.80
2010,10,08,12,17,12.80
2010,10,08,12,18,12.80
2010,10,08,12,19,12.80
2010,10,08,12,20,12.80
2010,10,08,12,21,12.80
2010,10,08,12,22,12.80
2010,10,08,12,23,12.80
2010,10,08,12,24,12.80
2010,10,08,12,25,12.80
2010,10,08,12,26,12.80
2010,10,08,12,27,12.80
2010,10,08,12,28,12.80
2010,10,08,12,29,12.80
2010,10,08,12,30,12.80
2010,10,08,12,31,12.80
2010,10,08,12,32,12.80
2010,10,08,12,33,12.80
2010,10,08,12,34,12.80
2010,10,08,12,35,12.80
2010,10,08,12,36,12.80
2010,10,08,12,37,12.80
2010,10,08,12,38,12.80
2010,10,08,12,39,12.90
2010,10,08,12,40,12.90
2010,10,08,12,41,12.90
2010,10,08,12,42,12.90
2010,10,08,12,43,12.90
2010,10,08,12,44,12.90
2010,10,08,12,45,12.90
2010,10,08,12,46,12.90
2010,10,08,12,47,12.90
2010,10,08,12,48,12.90
2010,10,08,12,49,12.80
2010,10,08,12,50,12.80
2010,10,08,12,51,12.80
2010,10,08,12,52,12.80
2010,10,08,12,53,12.80
2010,10,08,12,54,12.80
2010,10,08,12,55,12.80
2010,10,08,12,56,12.80
2010,10,08,12,57,12.80
2010,10,08,12,58,12.80
2010,10,08,12,59,12.80
2010,10,08,13,00,12.80
2010,10,08,13,01,12.80
2010,10,08,13,02,12.80
2010,10,08,13,03,12.80
2010,10,08,13,04,12.80
2010,10,08,13,05,12.80
2010,10,08,13,06,12.80
2010,10,08,13,07,12.80
2010,10,08,13,08,12.80
2010,10,08,13,09,12.80
2010,10,08,13,10,12.80
2010,10,08,13,11,12.80
2010,10,08,13,12,12.80
2010,10,08,13,13,12.80
2010,10,08,13,14,12.80
2010,10,08,13,15,12.80
2010,10,08,13,16,12.80
2010,10,08,13,17,12.80
2010,10,08,13,18,12.80
2010,10,08,13,19,12.80
2010,10,08,13,20,12.80
2010,10,08,13,21,12.80
2010,10,08,13,22,12.80
2010,10,08,13,23,12.80
2010,10,08,13,24,12.80
2010,10,08,13,25,12.80
2010,10,08,13,26,12.90
2010,10,08,13,27,12.90
2010,10,08,13,28,12.90
2010,10,08,13,29,12.90
2010,10,08,13,30,12.90
2010,10,08,13,31,12.90
2010,10,08,13,32,12.90
2010,10,08,13,33,12.80
2010,10,08,13,34,12.80
2010,10,08,13,35,12.80
2010,10,08,13,36,12.80
2010,10,08,13,37,12.80
2010,10,08,13,38,12.90
2010,10,08,13,39,12.90
2010,10,08,13,40,12.90
2010,10,08,13,41,12.90
2010,10,08,13,42,12.90
2010,10,08,13,43,12.90
2010,10,08,13,44,12.90
2010,10,08,13,45,12.90
2010,10,08,13,46,12.90
2010,10,08,13,47,12.90
2010,10,08,13,48,12.90
2010,10,08,13,49,12.90
2010,10,08,13,50,12.90
2010,10,08,13,51,12.90
2010,10,08,13,52,12.90
2010,10,08,13,53,12.90
2010,10,08,13,54,12.90
2010,10,08,13,55,12.90
2010,10,08,13,56,12.90
2010,10,08,13,57,12.90
2010,10,08,13,58,12.90
2010,10,08,13,59,12.90
2010,10,08,14,00,12.90
2010,10,08,14,01,12.90
2010,10,08,14,02,12.90
2010,10,08,14,03,12.90
2010,10,08,14,04,12.90
2010,10,08,14,05,12.90
2010,10,08,14,06,12.80
2010,10,08,14,07,12.90
2010,10,08,14,08,12.90
2010,10,08,14,09,12.90
2010,10,08,14,10,12.90
2010,10,08,14,11,12.90
2010,10,08,14,12,12.90
2010,10,08,14,13,12.80
2010,10,08,14,14,12.90
2010,10,08,14,15,12.90
2010,10,08,14,16,12.90
2010,10,08,14,17,12.90
2010,10,08,14,18,12.90
2010,10,08,14,19,12.90
2010,10,08,14,20,12.80
2010,10,08,14,21,12.80
2010,10,08,14,22,12.80
2010,10,08,14,23,12.80
2010,10,08,14,24,12.80
2010,10,08,14,25,12.80
2010,10,08,14,26,12.80
2010,10,08,14,27,12.80
2010,10,08,14,28,12.80
2010,10,08,14,29,12.90
2010,10,08,14,30,12.90
2010,10,08,14,31,12.90
2010,10,08,14,32,12.90
2010,10,08,14,33,12.90
2010,10,08,14,34,12.90
2010,10,08,14,35,12.90
2010,10,08,14,36,12.90
2010,10,08,14,37,12.90
2010,10,08,16,06,13.40
2010,10,08,16,07,13.40
2010,10,08,16,08,13.40
2010,10,08,16,09,13.40
2010,10,08,16,10,13.40
2010,10,08,16,11,13.40
2010,10,08,16,12,13.40
2010,10,08,16,13,13.40
2010,10,08,16,14,13.40
2010,10,08,16,15,13.40
2010,10,08,16,16,13.40
2010,10,08,16,17,13.40
2010,10,08,16,18,13.40
2010,10,08,16,19,13.40
2010,10,08,16,20,13.40
2010,10,08,16,21,13.50
2010,10,08,16,22,13.50
2010,10,08,16,23,13.50
2010,10,08,16,24,13.50
2010,10,08,16,25,13.50
2010,10,08,16,26,13.50
2010,10,08,16,27,13.50
2010,10,08,16,28,13.50
2010,10,08,16,29,13.50
2010,10,08,16,30,13.50
2010,10,08,16,31,13.50
2010,10,08,16,32,13.50
2010,10,08,16,33,13.50
2010,10,08,16,34,13.50
2010,10,08,16,35,13.50
2010,10,08,16,36,13.50
2010,10,08,16,37,13.50
2010,10,08,16,38,13.50
2010,10,08,16,39,13.50
2010,10,08,16,40,13.50
2010,10,08,16,41,13.60
2010,10,08,16,42,13.60
2010,10,08,16,43,13.60
2010,10,08,16,44,13.60
2010,10,08,16,45,13.60
2010,10,08,16,46,13.60
2010,10,08,16,47,13.70
2010,10,08,16,48,13.70
2010,10,08,16,49,13.70
2010,10,08,16,50,13.70
2010,10,08,16,51,13.70
2010,10,08,16,52,13.70
2010,10,08,16,53,13.70
2010,10,08,16,54,13.60
2010,10,08,16,55,13.60
2010,10,08,16,56,13.60
2010,10,08,16,57,13.60
2010,10,08,16,58,13.60
2010,10,08,16,59,13.60
2010,10,08,17,00,13.60
2010,10,08,17,01,13.60
2010,10,08,17,02,13.60
2010,10,08,17,03,13.50
2010,10,08,17,04,13.50
2010,10,08,17,05,13.50
2010,10,08,17,06,13.50
2010,10,08,17,07,13.60
2010,10,08,17,08,13.60
2010,10,08,17,09,13.60
2010,10,08,17,10,13.60
2010,10,08,17,11,13.60
2010,10,08,17,12,13.60
2010,10,08,17,13,13.60
2010,10,08,17,14,13.60
2010,10,08,17,15,13.60
2010,10,08,17,16,13.60
2010,10,08,17,17,13.60
2010,10,08,17,18,13.60
2010,10,08,17,19,13.60
2010,10,08,17,20,13.60
2010,10,08,17,21,13.60
2010,10,08,17,22,13.60
2010,10,08,17,23,13.60
2010,10,08,17,24,13.60
2010,10,08,17,25,13.60
2010,10,08,17,26,13.60
2010,10,08,17,27,13.60
2010,10,08,17,28,13.50
2010,10,08,17,29,13.50
2010,10,08,17,30,13.50
2010,10,08,17,31,13.50
2010,10,08,17,32,13.50
2010,10,08,17,33,13.50
2010,10,08,17,34,13.40
2010,10,08,17,35,13.40
2010,10,08,17,36,13.40
2010,10,08,17,37,13.40
2010,10,08,17,38,13.40
2010,10,08,17,39,13.40
2010,10,08,17,40,13.40
2010,10,08,17,41,13.40
2010,10,08,17,42,13.30
2010,10,08,17,43,13.30
2010,10,08,17,44,13.30
2010,10,08,17,45,13.30
2010,10,08,17,46,13.30
2010,10,08,17,47,13.30
2010,10,08,17,48,13.30
2010,10,08,17,49,13.30
2010,10,08,17,50,13.30
2010,10,08,17,51,13.30
2010,10,08,17,52,13.30
2010,10,08,17,53,13.30
2010,10,08,17,54,13.30
2010,10,08,17,55,13.30
2010,10,08,17,56,13.20
2010,10,08,17,57,13.20
2010,10,08,17,58,13.20
2010,10,08,17,59,13.20
2010,10,08,18,00,13.20
2010,10,08,18,01,13.20
2010,10,08,18,02,13.20
2010,10,08,18,03,13.20
2010,10,08,18,04,13.20
2010,10,08,18,05,13.20
2010,10,08,18,06,13.20
2010,10,08,18,07,13.20
2010,10,08,18,08,13.20
2010,10,08,18,09,13.20
2010,10,08,18,10,13.10
2010,10,08,18,11,13.10
2010,10,08,18,12,13.10
2010,10,08,18,13,13.10
2010,10,08,18,14,13.10
2010,10,08,18,15,13.10
2010,10,08,18,16,13.10
2010,10,08,18,17,13.10
2010,10,08,18,18,13.10
2010,10,08,18,19,13.10
2010,10,08,18,20,13.00
2010,10,08,18,21,13.00
2010,10,08,18,22,13.00
2010,10,08,18,23,13.00
2010,10,08,18,24,13.00
2010,10,08,18,25,12.90
2010,10,08,18,26,12.90
2010,10,08,18,27,12.90
2010,10,08,18,28,12.90
2010,10,08,18,29,12.90
2010,10,08,18,30,12.90
2010,10,08,18,31,12.90
2010,10,08,18,32,12.80
2010,10,08,18,33,12.80
2010,10,08,18,34,12.80
2010,10,08,18,35,12.80
2010,10,08,18,36,12.80
2010,10,08,18,37,12.80
2010,10,08,18,38,12.70
2010,10,08,18,39,12.70
2010,10,08,18,40,12.70
2010,10,08,18,41,12.70
2010,10,08,18,42,12.70
2010,10,08,18,43,12.70
2010,10,08,18,44,12.70
2010,10,08,18,45,12.60
2010,10,08,18,46,12.60
2010,10,08,18,47,12.60